KD0RIH Weather Reports


time (UTC)temp
C
wind
direction
speed
KPH
gust
KPH
rain 1hr
cm
rain 24hr
cm
rain mn
cm
humidity
%
barometer
mb
20260504221114 28 210 3.2 3.2 0.00 0.13 0.13 33 1000.8
20260504220610 28 237 3.2 3.2 0.00 0.13 0.13 34 1001.0
20260504220108 28 167 6.4 9.7 0.00 0.13 0.13 35 1001.0
20260504215603 28 229 6.4 12.9 0.00 0.13 0.13 33 1001.1
20260504215101 28 299 4.8 6.4 0.00 0.13 0.13 34 1001.1
20260504214557 28 303 3.2 6.4 0.00 0.13 0.13 34 1001.0
20260504214054 29 310 3.2 6.4 0.00 0.13 0.13 33 1001.0
20260504213550 29 173 4.8 6.4 0.00 0.13 0.13 32 1001.1
20260504213047 30 313 1.6 1.6 0.00 0.13 0.13 32 1001.3
20260504212543 30 291 1.6 1.6 0.00 0.13 0.13 32 1001.2
20260504212040 30 301 0.0 1.6 0.00 0.13 0.13 32 1001.2
20260504211537 30 289 0.0 1.6 0.00 0.13 0.13 32 1001.2
20260504211034 28 313 1.6 1.6 0.00 0.13 0.13 34 1001.1
20260504210531 28 230 8.0 9.7 0.00 0.13 0.13 35 1001.2
20260504210028 29 233 8.0 11.3 0.00 0.13 0.13 34 1001.1
20260504205526 28 316 0.0 1.6 0.00 0.13 0.13 35 1001.1
20260504205023 28 274 3.2 3.2 0.00 0.13 0.13 36 1001.0
20260504204521 28 295 6.4 11.3 0.00 0.13 0.13 34 1001.2
20260504204020 28 230 3.2 4.8 0.00 0.13 0.13 35 1001.2
20260504203518 28 188 6.4 11.3 0.00 0.13 0.13 36 1001.4
20260504203015 28 288 3.2 3.2 0.00 0.13 0.13 37 1001.3
20260504202510 28 164 6.4 11.3 0.00 0.13 0.13 36 1001.6
20260504202002 28 322 0.0 1.6 0.00 0.13 0.13 34 1001.6
20260504201459 28 216 4.8 6.4 0.00 0.13 0.13 34 1001.6
20260504200956 28 239 3.2 4.8 0.00 0.13 0.13 36 1001.5
20260504200453 28 218 4.8 6.4 0.00 0.13 0.13 33 1001.8
20260504195950 28 316 3.2 3.2 0.00 0.13 0.13 36 1001.7
20260504195445 28 201 9.7 11.3 0.00 0.13 0.13 35 1001.6
20260504194942 28 155 3.2 4.8 0.00 0.13 0.13 35 1001.6
20260504194438 28 224 0.0 1.6 0.00 0.13 0.13 36 1001.7
20260504193934 28 239 4.8 6.4 0.00 0.13 0.13 34 1001.6
20260504193432 27 226 4.8 4.8 0.00 0.13 0.13 35 1001.6
20260504192931 27 285 4.8 4.8 0.00 0.13 0.13 39 1001.7
20260504192427 27 201 6.4 9.7 0.00 0.13 0.13 35 1001.7
20260504191926 27 199 6.4 11.3 0.00 0.13 0.13 36 1001.6
20260504191424 27 174 8.0 11.3 0.00 0.13 0.13 38 1001.8
20260504190919 27 217 9.7 12.9 0.00 0.13 0.13 37 1001.9
20260504190415 27 246 0.0 1.6 0.00 0.13 0.13 36 1001.9
20260504185912 27 237 4.8 6.4 0.00 0.13 0.13 35 1002.1
20260504185409 28 218 9.7 12.9 0.00 0.13 0.13 34 1001.8
20260504184905 27 290 1.6 1.6 0.00 0.13 0.13 37 1001.9
20260504184401 28 150 6.4 9.7 0.00 0.13 0.13 33 1002.0
20260504183857 28 246 4.8 6.4 0.00 0.13 0.13 34 1001.9
20260504183354 28 241 1.6 3.2 0.00 0.13 0.13 36 1001.9
20260504182851 27 239 3.2 4.8 0.00 0.13 0.13 37 1002.3
20260504182349 27 289 3.2 4.8 0.00 0.13 0.13 37 1002.1
20260504181845 26 265 3.2 4.8 0.00 0.13 0.13 35 1002.2
20260504181343 26 310 3.2 4.8 0.00 0.13 0.13 37 1002.2
20260504180842 27 297 3.2 4.8 0.00 0.13 0.13 35 1002.1
20260504180340 26 282 1.6 3.2 0.00 0.13 0.13 37 1002.2
20260504175838 27 261 6.4 11.3 0.00 0.13 0.13 36 1002.3
20260504175334 27 310 1.6 3.2 0.00 0.13 0.13 38 1002.2
20260504174833 27 269 3.2 4.8 0.00 0.13 0.13 35 1002.2
20260504174330 27 289 1.6 3.2 0.00 0.13 0.13 36 1002.3
20260504173827 26 284 6.4 9.7 0.00 0.13 0.13 37 1002.3
20260504173323 26 265 3.2 4.8 0.00 0.13 0.13 37 1002.4
20260504172820 26 307 1.6 3.2 0.00 0.13 0.13 37 1002.3
20260504172317 26 242 8.0 11.3 0.00 0.13 0.13 37 1002.5
20260504171812 25 276 3.2 3.2 0.00 0.13 0.13 40 1002.5
20260504171310 25 197 8.0 9.7 0.00 0.13 0.13 39 1002.5
20260504170807 26 300 4.8 9.7 0.00 0.13 0.13 38 1002.7
20260504170304 26 215 6.4 6.4 0.00 0.13 0.13 38 1002.7
20260504160222 23 220 9.7 11.3 0.00 0.13 0.13 41 1003.1
20260504150653 22 307 1.6 3.2 0.00 0.13 0.13 45 1002.9
20260504150149 22 264 4.8 6.4 0.00 0.13 0.13 44 1003.0
20260504141119 21 225 4.8 6.4 0.00 0.13 0.13 51 1003.5
20260504140615 21 167 8.0 11.3 0.00 0.13 0.13 48 1003.4
20260504140111 20 207 6.4 9.7 0.00 0.13 0.13 50 1003.5
20260504130539 18 245 6.4 11.3 0.00 0.13 0.13 55 1003.4
20260504110426 13 296 0.0 0.0 0.00 0.13 0.13 73 1003.7
20260504100343 15 270 1.6 3.2 0.00 0.13 0.13 70 1004.5
20260504081737 16 256 4.8 6.4 0.00 0.00 0.00 61 1005.4
20260504081233 16 232 9.7 12.9 0.00 0.00 0.00 59 1005.3
20260504080730 16 242 4.8 6.4 0.00 0.00 0.00 61 1005.1
20260504080226 16 282 1.6 3.2 0.00 0.00 0.00 62 1005.4
20260504070154 15 318 0.0 1.6 0.00 0.00 0.00 63 1006.9
20260504060114 15 316 0.0 0.0 0.00 0.00 0.00 60 1007.7
20260504050542 17 290 1.6 1.6 0.00 0.00 0.00 55 1007.4
20260504045536 17 292 1.6 1.6 0.00 0.00 0.00 53 1007.4
20260504045032 16 8 1.6 1.6 0.00 0.00 0.00 55 1007.7
20260504044529 16 311 0.0 0.0 0.00 0.00 0.00 59 1008.2
20260504044026 16 312 0.0 0.0 0.00 0.00 0.00 57 1008.3
20260504043523 16 317 0.0 1.6 0.00 0.00 0.00 56 1008.1
20260504043021 16 314 0.0 0.0 0.00 0.00 0.00 55 1007.9
20260504042517 16 313 0.0 0.0 0.00 0.00 0.00 58 1007.8
20260504042014 16 313 0.0 0.0 0.00 0.00 0.00 55 1008.0
20260504041510 16 313 0.0 0.0 0.00 0.00 0.00 57 1008.0
20260504041006 16 313 0.0 0.0 0.00 0.00 0.00 56 1008.1
20260504040504 16 313 0.0 0.0 0.00 0.00 0.00 54 1008.0
20260504040000 16 313 0.0 0.0 0.00 0.00 0.00 53 1008.1
20260504035457 17 312 0.0 0.0 0.00 0.00 0.00 52 1008.2
20260504034954 17 326 0.0 0.0 0.00 0.00 0.00 52 1008.3
20260504034451 17 326 0.0 0.0 0.00 0.00 0.00 52 1008.3
20260504033948 17 326 0.0 0.0 0.00 0.00 0.00 52 1008.4
20260504033446 17 325 0.0 0.0 0.00 0.00 0.00 51 1008.4
20260504032943 16 325 0.0 0.0 0.00 0.00 0.00 52 1008.6
20260504032440 16 325 0.0 0.0 0.00 0.00 0.00 53 1008.6
20260504031937 16 325 0.0 0.0 0.00 0.00 0.00 56 1008.6
20260504031434 16 325 0.0 0.0 0.00 0.00 0.00 54 1008.4
20260504030930 17 325 0.0 0.0 0.00 0.00 0.00 54 1008.4
20260504030427 17 325 0.0 0.0 0.00 0.00 0.00 51 1008.3
20260504025923 17 325 0.0 0.0 0.00 0.00 0.00 51 1008.3
20260504025420 17 325 0.0 0.0 0.00 0.00 0.00 51 1008.2
20260504024917 17 325 0.0 0.0 0.00 0.00 0.00 52 1008.2
20260504024414 17 319 0.0 0.0 0.00 0.00 0.00 51 1008.2
20260504023911 17 319 0.0 0.0 0.00 0.00 0.00 48 1008.2
20260504023408 17 319 0.0 0.0 0.00 0.00 0.00 49 1008.1
20260504022903 17 319 0.0 0.0 0.00 0.00 0.00 48 1008.4
20260504022400 18 318 0.0 0.0 0.00 0.00 0.00 51 1008.2
20260504021856 18 318 0.0 0.0 0.00 0.00 0.00 46 1008.2
20260504021354 18 318 0.0 0.0 0.00 0.00 0.00 46 1008.1
20260504020851 18 318 0.0 0.0 0.00 0.00 0.00 46 1008.2
20260504020347 19 318 0.0 0.0 0.00 0.00 0.00 45 1008.1
20260504015844 19 318 0.0 0.0 0.00 0.00 0.00 44 1008.0
20260504015340 19 318 0.0 0.0 0.00 0.00 0.00 42 1008.1
20260504014836 19 318 0.0 0.0 0.00 0.00 0.00 43 1008.1
20260504014332 20 318 0.0 0.0 0.00 0.00 0.00 44 1008.2
20260504013830 20 313 0.0 0.0 0.00 0.00 0.00 43 1007.9
20260504013328 20 313 0.0 0.0 0.00 0.00 0.00 43 1008.0
20260504012824 20 313 0.0 0.0 0.00 0.00 0.00 43 1008.2
20260504012322 20 313 0.0 0.0 0.00 0.00 0.00 42 1008.1
20260504011819 21 313 0.0 0.0 0.00 0.00 0.00 41 1008.2
20260504011316 21 313 0.0 0.0 0.00 0.00 0.00 40 1008.1
20260504010811 22 313 0.0 0.0 0.00 0.00 0.00 40 1008.0
20260504010307 22 313 0.0 0.0 0.00 0.00 0.00 39 1008.2
20260504005804 22 313 0.0 0.0 0.00 0.00 0.00 37 1008.2
20260504005301 23 313 0.0 0.0 0.00 0.00 0.00 37 1008.4
20260504004759 23 313 0.0 0.0 0.00 0.00 0.00 36 1008.3
20260504004256 24 313 0.0 0.0 0.00 0.00 0.00 35 1008.2
20260504003752 24 320 0.0 0.0 0.00 0.00 0.00 35 1008.1
20260504003249 25 324 0.0 1.6 0.00 0.00 0.00 34 1008.4
20260504002746 25 320 0.0 0.0 0.00 0.00 0.00 33 1008.4
20260504002243 25 307 0.0 0.0 0.00 0.00 0.00 34 1008.3
20260504001741 25 316 0.0 0.0 0.00 0.00 0.00 34 1008.4
20260504001237 25 319 0.0 0.0 0.00 0.00 0.00 34 1008.5
20260504000734 26 304 1.6 3.2 0.00 0.00 0.00 33 1008.4
20260504000233 26 305 0.0 0.0 0.00 0.00 0.00 32 1008.4
20260503235729 26 310 0.0 1.6 0.00 0.00 0.00 30 1008.6
20260503235226 27 315 0.0 0.0 0.00 0.00 0.00 30 1008.5
20260503234724 26 316 0.0 0.0 0.00 0.00 0.00 31 1008.5
20260503234222 26 321 0.0 0.0 0.00 0.00 0.00 30 1008.6
20260503233718 26 326 0.0 0.0 0.00 0.00 0.00 30 1008.7
20260503233214 26 315 0.0 0.0 0.00 0.00 0.00 30 1008.6
20260503232711 26 314 0.0 0.0 0.00 0.00 0.00 30 1008.6
20260503232208 27 309 0.0 0.0 0.00 0.00 0.00 30 1008.7
20260503231707 27 304 0.0 0.0 0.00 0.00 0.00 29 1008.7
20260503231203 27 316 0.0 1.6 0.00 0.00 0.00 29 1008.7
20260503230659 27 303 0.0 1.6 0.00 0.00 0.00 28 1008.8
20260503230156 28 300 0.0 1.6 0.00 0.00 0.00 28 1008.7
20260503225654 28 320 0.0 0.0 0.00 0.00 0.00 27 1008.9
20260503225154 28 311 0.0 0.0 0.00 0.00 0.00 27 1008.8
20260503224651 28 314 0.0 0.0 0.00 0.00 0.00 27 1008.9
20260503224149 29 308 0.0 1.6 0.00 0.00 0.00 27 1008.7
20260503223647 28 315 0.0 0.0 0.00 0.00 0.00 28 1008.8
20260503223143 28 334 0.0 1.6 0.00 0.00 0.00 27 1008.9
20260503222640 28 319 0.0 1.6 0.00 0.00 0.00 26 1008.9
20260503222138 28 311 0.0 0.0 0.00 0.00 0.00 28 1008.7
20260503221636 28 327 0.0 0.0 0.00 0.00 0.00 30 1008.7